Wind_Speed
20 20 19 19 18 18 19 20 20 19 18 18 18 16 16 15 17 20 22 16 8 15 14 13 11 17 16 16 16 15 15 20 27 24 17 13 14 12 2 8 2 3 4 8 13
21 22 22 21 20 19 19 19 19 20 20 18 18 17 15 15 20 25 27 20 18 18 14 12 12 17 16 19 14 17 18 25 18 15 17 12 15 16 11 9 7 7 9 9 12
22 22 22 21 21 21 21 20 19 19 18 18 19 18 15 13 21 10 4 7 14 12 18 15 14 17 22 17 22 23 22 20 15 8 11 13 15 7 14 11 8 8 10 12 13
22 22 21 21 21 21 19 20 20 19 19 18 16 16 16 9 7 7 14 14 3 7 18 20 16 20 22 24 21 17 25 16 14 14 18 14 14 17 12 10 4 3 9 10 11
23 23 22 22 22 22 21 20 21 20 18 17 16 14 11 8 19 9 14 14 12 11 22 22 21 20 23 24 20 24 16 19 12 14 17 15 15 15 18 11 6 7 9 10 9
25 25 24 25 24 24 24 23 23 21 18 16 14 12 13 23 17 20 24 21 15 10 9 21 15 22 13 19 25 17 22 17 18 20 16 17 16 14 13 9 11 10 10 9 10
27 27 28 27 27 27 26 25 25 24 20 17 14 11 14 23 7 4 7 12 7 7 10 15 18 18 15 19 20 9 24 15 21 19 16 13 16 21 16 14 13 13 10 9 8
28 30 31 30 28 28 29 29 27 24 22 20 16 15 12 10 22 32 30 18 12 4 6 9 18 15 20 9 17 24 18 23 21 22 18 17 21 18 16 15 15 14 11 10 9
32 33 32 29 29 29 30 30 28 22 19 17 13 10 13 6 16 19 24 27 22 17 10 10 13 17 17 17 16 22 20 26 22 22 15 21 15 22 19 17 17 14 12 10 11
34 34 34 32 30 29 29 27 14 2 7 10 3 5 10 11 4 6 7 17 20 16 10 7 10 15 19 19 25 26 24 24 21 21 23 21 15 5 17 20 19 16 14 12 11
35 35 35 32 32 27 22 12 3 6 7 10 8 12 3 9 3 4 2 14 17 20 14 14 17 26 31 29 21 17 24 19 21 13 24 19 21 10 17 22 21 18 15 14 13
37 38 35 34 29 23 7 6 4 6 11 15 18 18 19 7 3 9 14 7 17 23 23 7 22 21 21 23 24 13 20 18 19 15 22 22 19 16 14 20 23 21 19 16 13
40 38 38 31 23 6 8 6 2 2 6 6 9 15 18 20 19 13 13 11 10 23 26 16 13 20 21 22 23 17 20 19 21 16 13 16 18 19 16 18 18 19 17 18 18
42 41 35 25 9 6 6 2 1 1 4 6 4 3 8 8 8 21 27 15 9 20 27 22 11 22 21 24 23 18 18 19 20 21 12 18 11 21 22 20 17 18 19 18 20
44 41 25 9 9 5 3 2 2 3 4 4 5 4 9 12 4 4 23 19 18 13 19 17 18 22 24 25 24 16 12 16 19 19 10 20 9 20 21 24 24 23 21 21 20
47 32 12 4 4 6 2 3 2 4 1 2 4 7 9 13 2 3 15 21 17 11 19 22 16 17 19 22 23 15 14 14 13 13 11 17 15 12 16 21 19 21 23 22 22
40 12 6 6 9 4 4 1 4 3 2 2 5 4 10 6 9 8 15 22 13 13 16 20 20 17 17 24 24 20 20 10 13 10 9 17 13 6 13 14 13 17 18 20 19
31 5 7 8 9 2 2 2 4 1 6 8 6 13 12 6 8 16 5 19 20 16 17 20 19 23 17 27 30 30 24 14 20 15 10 13 9 10 15 8 8 7 7 9 15
17 2 7 13 8 1 1 4 6 3 4 6 13 4 1 5 4 12 13 19 17 14 10 22 19 22 24 26 23 26 21 2 11 13 11 11 12 6 11 8 7 6 5 11 14
12 5 7 15 5 0 2 5 4 5 4 3 3 3 4 2 5 12 16 16 14 19 21 15 18 27 23 25 20 27 23 8 6 13 14 13 16 14 16 10 3 3 7 10 12
5 4 9 14 3 3 5 5 9 14 6 5 3 3 3 4 6 4 11 17 19 18 18 7 8 22 25 18 23 16 18 9 2 4 10 11 11 17 11 6 5 11 12 16 16
7 3 12 15 7 3 8 17 12 13 11 3 3 5 3 5 2 4 13 6 15 15 16 11 11 20 33 22 22 20 22 14 8 6 5 11 9 7 4 6 13 13 16 16 18
8 4 6 16 5 7 11 10 17 16 13 2 4 5 3 3 1 5 4 6 16 13 6 7 11 18 22 15 20 22 23 13 3 11 12 10 10 6 8 14 16 16 16 19 23
5 5 3 4 3 13 12 10 19 15 9 11 4 6 5 3 3 4 5 7 16 11 11 14 19 24 19 32 29 26 25 16 13 8 10 15 18 11 12 14 16 16 16 21 22
6 5 5 8 10 16 14 14 20 11 5 9 6 18 11 1 1 3 7 12 5 9 8 3 18 8 7 25 25 22 23 22 13 8 14 15 16 13 13 15 17 17 14 20 21
5 5 5 6 14 17 15 16 19 18 7 11 10 19 9 7 8 17 14 7 3 5 2 1 13 6 17 21 22 20 19 23 15 9 2 12 15 12 15 16 18 16 19 20 20
7 7 2 10 13 13 14 20 21 21 7 12 15 9 9 11 9 7 7 5 6 4 4 3 9 9 14 20 21 18 21 23 19 12 9 11 13 14 17 17 18 19 18 20 19
Wind_Direction
351 349 345 340 333 329 324 321 317 314 308 309 309 306 311 298 292 282 263 246 237 249 280 279 247 209 214 216 213 227 223 227 225 223 219 191 213 199 153 242 137 49 42 97 143
346 344 340 338 335 332 325 320 320 318 315 315 310 304 304 310 295 279 266 248 239 251 260 244 212 199 204 209 200 207 220 223 228 212 229 182 216 192 211 205 182 132 110 125 154
343 340 336 331 328 325 325 322 317 315 312 310 306 311 302 311 299 263 47 185 220 238 235 243 249 206 213 210 204 213 230 225 223 247 218 197 210 178 219 206 219 202 154 157 169
340 335 333 330 325 321 319 315 314 311 310 308 308 303 309 284 272 156 126 89 12 277 227 220 222 208 213 209 208 229 222 247 187 209 217 216 224 213 223 228 74 188 152 165 175
338 334 330 327 323 319 314 314 312 307 304 304 302 308 304 237 244 243 227 285 318 312 212 205 209 202 209 211 211 216 203 213 225 202 222 209 213 224 225 227 215 149 164 172 179
335 333 329 327 322 316 312 308 302 299 296 296 292 290 262 255 269 255 254 265 281 272 211 209 218 211 225 223 211 205 225 210 209 210 208 216 216 214 227 176 201 176 169 177 176
333 331 328 325 321 315 310 305 301 294 282 278 275 270 254 244 257 195 238 242 229 247 235 211 220 221 218 216 225 220 212 208 212 209 211 215 216 210 219 189 182 184 171 165 175
331 331 330 327 321 315 310 307 302 289 279 269 258 250 253 274 253 254 249 237 213 224 284 294 217 249 229 217 182 206 214 209 199 204 198 202 218 199 202 193 185 187 182 175 173
332 331 330 324 321 317 315 310 302 293 282 261 241 217 260 285 244 253 240 232 229 227 221 283 221 221 198 204 193 190 206 210 198 198 191 208 224 189 197 194 194 184 187 191 178
332 332 329 327 320 320 315 313 311 275 85 119 166 163 239 243 213 238 216 223 212 195 180 239 212 195 202 200 200 193 212 198 198 189 205 199 219 184 194 202 203 197 197 197 194
333 332 330 328 325 321 320 321 246 188 200 247 199 239 265 204 193 193 203 177 186 191 183 207 202 203 197 206 217 198 198 206 206 169 198 197 212 168 197 205 205 201 204 197 199
334 332 331 326 322 318 307 323 332 326 292 261 249 241 248 134 165 125 139 161 195 194 185 165 220 206 207 205 217 255 188 188 195 172 194 202 205 219 194 204 204 205 205 205 216
334 333 331 325 316 301 311 294 313 275 272 292 227 233 228 233 243 196 202 140 230 200 190 195 197 218 204 193 203 198 198 178 186 165 210 178 207 213 190 200 210 208 206 215 225
333 332 331 323 294 312 309 337 353 252 277 163 190 200 186 212 246 229 217 231 197 214 192 209 187 198 189 194 198 180 193 181 185 177 181 195 190 209 207 200 203 210 220 222 216
333 336 330 297 306 298 6 103 242 234 294 125 128 131 155 203 335 179 193 206 231 211 204 192 199 185 193 192 199 162 186 169 174 194 166 192 247 179 198 213 211 216 220 225 224
336 342 350 352 247 317 255 171 249 228 222 255 156 204 212 222 245 110 180 207 226 202 206 200 206 183 202 191 195 144 162 176 176 180 208 182 219 152 193 207 208 206 213 217 224
341 341 6 337 350 344 142 131 235 271 108 231 250 254 249 220 198 200 188 194 192 189 192 211 190 176 214 173 191 166 159 152 174 190 210 164 203 63 164 183 190 202 214 218 221
341 311 345 347 332 275 138 276 266 257 278 314 269 271 259 211 198 181 178 197 213 203 179 179 189 191 198 177 177 183 185 168 177 184 135 142 205 146 162 171 177 190 212 227 219
355 330 354 355 345 342 257 283 339 308 300 298 306 243 8 168 191 179 198 204 194 181 225 182 175 193 181 177 180 187 207 105 197 180 141 177 134 144 155 173 190 224 250 225 222
333 292 15 351 344 60 273 295 281 207 267 230 281 322 331 8 199 174 179 216 225 203 232 172 167 182 174 182 204 194 194 152 206 165 154 172 171 150 178 180 132 119 124 112 109
305 274 18 349 334 305 344 289 291 316 299 212 280 285 307 311 128 129 167 162 186 208 228 117 211 178 172 194 185 182 200 232 185 253 137 147 153 133 134 84 101 100 104 102 107
322 318 7 349 22 319 330 321 314 321 349 181 275 266 267 319 354 104 130 186 179 195 206 176 194 171 179 186 180 188 182 196 179 155 140 168 117 112 90 82 107 105 97 112 117
337 314 10 11 23 346 321 311 357 342 333 342 236 245 280 275 317 85 174 209 178 185 214 165 189 150 160 175 184 190 184 196 236 153 173 154 141 142 111 107 108 114 118 121 116
339 342 11 349 37 342 325 334 345 343 324 333 306 308 255 277 186 134 211 171 178 172 232 247 161 158 172 182 176 182 182 184 185 174 170 140 130 138 121 116 120 125 132 123 123
17 25 26 322 344 337 344 330 337 348 331 334 323 342 344 115 237 195 136 117 177 236 233 243 162 187 175 158 173 174 183 185 193 131 128 137 135 137 126 140 134 139 137 131 127
13 353 346 285 332 339 360 345 342 347 325 321 326 334 34 28 11 138 151 166 157 203 303 212 164 122 127 147 163 177 179 196 211 206 151 140 108 124 115 132 140 146 149 137 134
357 327 294 286 346 359 348 341 340 354 324 321 319 330 22 7 351 7 38 29 57 -0 321 192 158 167 141 151 151 168 178 181 190 190 176 175 138 147 138 150 154 159 148 134 130
Height
820 816 813 811 808 806 803 801 799 796 793 792 790 789 786 783 780 778 770 768 768 769 769 767 767 765 763 755 752 753 754 747 737 737 739 724 743 731 731 737 737 742 743 749 756
819 816 813 810 807 803 800 798 796 794 792 790 788 785 784 781 777 766 762 762 764 766 768 764 758 759 755 751 750 749 749 734 725 726 735 731 737 731 742 739 740 745 750 756 757
818 814 811 808 805 802 798 796 793 792 789 787 786 784 782 780 771 752 753 753 761 762 764 764 760 754 751 744 742 742 737 731 725 732 737 734 738 733 740 743 734 738 748 754 756
815 811 808 805 802 799 795 792 789 787 785 784 783 781 780 781 759 752 755 754 760 760 760 759 757 751 746 744 737 746 737 730 734 740 740 740 735 739 738 735 733 738 743 749 751
812 808 805 801 798 795 791 788 785 783 781 781 781 779 778 774 755 753 756 754 755 753 748 751 749 744 741 737 739 743 733 737 734 738 738 736 742 740 738 734 739 741 745 747 751
809 806 802 797 793 790 786 781 780 778 777 776 777 775 775 763 752 751 752 753 754 752 749 747 742 738 734 732 734 737 733 737 737 737 736 740 740 740 738 737 741 743 744 745 749
806 801 798 793 788 784 779 775 772 771 770 770 771 772 768 749 748 748 750 750 751 750 747 748 743 738 737 733 729 734 740 739 735 734 737 739 746 744 733 738 740 743 743 746 748
803 798 794 789 784 778 775 769 764 763 762 763 765 766 755 747 744 745 747 747 749 751 753 750 747 744 731 727 729 737 739 741 731 733 735 743 743 737 731 738 739 742 743 746 748
801 795 788 783 778 772 767 761 756 754 752 754 759 760 746 739 739 737 738 738 744 749 753 753 748 741 736 732 734 729 731 731 728 728 734 742 743 723 732 735 738 740 742 744 747
796 790 784 779 773 767 760 754 750 750 749 750 754 761 741 731 730 733 733 734 738 743 752 755 743 734 727 723 710 719 725 722 723 728 733 741 735 730 732 733 736 737 738 741 743
792 786 780 774 769 764 757 750 745 741 746 731 731 727 724 726 729 728 731 732 736 735 739 748 736 716 708 710 704 704 719 715 717 723 734 735 737 734 732 734 735 735 737 738 739
787 781 775 768 763 760 757 750 749 752 740 730 728 726 728 726 726 729 732 731 730 722 726 747 729 712 709 711 711 712 717 719 721 726 731 733 737 732 732 731 729 731 734 737 738
782 775 769 763 756 755 753 752 751 752 743 718 718 720 723 727 724 726 726 731 727 716 717 722 724 710 711 715 719 717 717 716 723 727 723 730 741 736 729 729 727 727 729 734 736
776 769 763 758 756 750 749 751 752 751 738 708 712 713 716 720 719 715 719 722 728 709 708 714 710 715 714 718 713 718 703 709 716 726 732 723 736 734 727 732 733 733 731 730 730
771 763 757 754 752 749 753 751 751 750 704 709 712 714 715 713 708 704 711 719 711 709 704 715 716 716 716 714 709 711 704 709 713 717 715 731 723 710 721 729 728 729 728 727 727
766 758 753 754 753 751 751 750 751 739 711 705 707 710 713 711 712 711 711 714 705 712 703 697 700 719 707 708 709 705 713 714 712 712 734 716 713 713 718 716 716 717 719 721 722
762 756 753 754 751 751 751 752 733 716 724 707 710 715 708 716 717 717 710 711 703 715 711 700 703 711 704 708 711 710 711 725 733 729 719 703 720 699 700 701 703 710 712 714 716
759 756 756 756 753 751 751 749 717 714 712 701 709 707 711 709 713 711 721 708 693 694 690 691 715 700 702 700 697 700 695 700 721 714 715 712 720 704 700 699 702 704 707 709 712
756 757 756 754 752 750 751 729 716 727 725 721 708 705 693 700 703 712 714 705 688 693 693 684 696 695 694 694 697 707 705 682 685 683 715 716 703 706 702 706 706 707 711 714 714
760 755 752 752 750 750 747 732 731 737 731 728 713 704 695 685 682 693 707 698 687 684 685 671 692 688 692 693 696 693 686 708 692 717 717 714 715 709 711 706 705 710 713 715 716
759 747 753 751 750 746 741 736 729 718 717 727 712 706 694 691 672 671 672 677 678 683 689 697 698 691 688 693 692 698 703 703 686 696 707 719 707 691 699 706 713 716 720 729 741
759 741 755 749 749 750 744 738 725 716 713 722 726 711 702 695 677 674 672 671 673 682 690 709 684 687 678 680 679 686 695 694 702 714 692 700 715 704 706 707 712 734 739 743 743
762 756 755 752 759 756 746 734 725 722 716 712 716 710 699 692 688 681 682 679 677 682 692 687 683 685 694 690 685 689 689 690 686 691 704 711 718 704 707 711 730 741 744 741 738
767 757 752 751 757 760 751 735 729 721 715 712 706 702 692 691 686 695 692 678 680 689 698 692 665 670 675 666 670 688 689 692 691 697 694 693 711 713 711 728 741 746 745 740 742
775 772 782 768 758 756 746 739 733 726 721 714 707 703 688 692 708 692 679 688 695 691 683 677 669 660 652 662 679 686 691 693 693 687 695 700 703 709 715 734 743 747 748 745 748
786 792 786 785 761 753 746 745 737 728 727 718 715 704 692 693 693 680 683 689 692 683 678 674 679 665 669 669 677 689 692 692 692 691 690 692 707 708 721 736 745 750 744 746 752
800 797 794 771 754 753 753 747 736 729 726 723 715 698 696 702 698 693 691 693 692 697 686 675 670 671 680 671 676 696 688 688 689 688 689 699 695 710 729 741 744 746 744 748 757